timestamp,wind_dir_avg,wind_spd_avg,wind_spd_max_dir,wind_spd_gust,battery_voltage,lat,long
2023-02-01 00:04:00+00:00,94.0,1.96,109.0,2.82,12.33,47.59359,-54.27349
2023-02-01 00:14:00+00:00,94.0,2.06,115.0,3.7,12.33,47.59359,-54.27349
2023-02-01 00:24:00+00:00,98.0,1.73,74.0,2.15,12.33,47.59359,-54.27349
2023-02-01 00:34:00+00:00,83.0,2.21,85.0,2.91,12.33,47.59359,-54.27349
2023-02-01 00:44:00+00:00,73.0,2.84,64.0,3.62,12.33,47.59359,-54.27349
2023-02-01 00:54:00+00:00,74.0,3.64,72.0,4.03,12.33,47.59359,-54.27349
2023-02-01 01:04:00+00:00,64.0,4.05,62.0,4.62,12.33,47.59359,-54.27349
2023-02-01 01:14:00+00:00,66.0,4.41,67.0,4.88,12.25,47.59359,-54.27349
2023-02-01 01:24:00+00:00,61.0,4.21,64.0,4.76,12.25,47.59359,-54.27349
2023-02-01 01:34:00+00:00,68.0,4.42,71.0,4.68,12.25,47.59359,-54.27349
2023-02-01 01:44:00+00:00,64.0,4.16,71.0,4.56,12.25,47.59359,-54.27349
2023-02-01 01:54:00+00:00,66.0,4.0,65.0,4.29,12.25,47.59359,-54.27349
2023-02-01 02:04:00+00:00,61.0,3.72,58.0,4.3,12.25,47.59359,-54.27349
2023-02-01 02:14:01+00:00,56.0,4.4,54.0,4.73,12.25,47.59359,-54.27349
2023-02-01 02:24:01+00:00,58.0,5.52,60.0,6.06,12.25,47.59359,-54.27349
2023-02-01 02:34:01+00:00,56.0,5.64,56.0,6.59,12.25,47.59359,-54.27349
2023-02-01 02:44:01+00:00,44.0,7.07,55.0,9.63,12.25,47.59359,-54.27349
2023-02-01 02:54:01+00:00,37.0,9.69,40.0,10.74,12.25,47.59359,-54.27349
2023-02-01 03:04:01+00:00,24.0,11.46,33.0,13.05,12.25,47.59359,-54.27349
2023-02-01 03:14:00+00:00,22.0,12.73,29.0,14.19,12.17,47.59359,-54.27349
2023-02-01 03:24:00+00:00,15.0,13.48,16.0,15.3,12.17,47.59359,-54.27349
2023-02-01 03:34:00+00:00,13.0,14.18,13.0,16.41,12.17,47.59359,-54.27349
2023-02-01 03:44:00+00:00,6.0,13.92,18.0,15.71,12.17,47.59359,-54.27349
2023-02-01 03:54:00+00:00,8.0,13.56,6.0,16.3,12.17,47.59359,-54.27349
2023-02-01 04:04:00+00:00,15.0,13.0,15.0,15.37,12.17,47.59359,-54.27349
2023-02-01 04:14:00+00:00,15.0,12.46,17.0,15.48,12.17,47.59359,-54.27349
2023-02-01 04:24:00+00:00,8.0,10.86,18.0,13.39,12.17,47.59359,-54.27349
2023-02-01 04:34:00+00:00,346.0,16.5,341.0,19.34,12.17,47.59359,-54.27349
2023-02-01 04:44:00+00:00,3.0,15.68,3.0,17.65,12.17,47.59359,-54.27349
2023-02-01 04:54:00+00:00,15.0,13.79,11.0,15.88,12.17,47.59359,-54.27349
2023-02-01 05:04:00+00:00,13.0,13.13,15.0,16.05,12.17,47.59359,-54.27349
2023-02-01 05:14:00+00:00,11.0,13.51,14.0,16.16,12.17,47.59359,-54.27349
2023-02-01 05:24:00+00:00,13.0,11.75,2.0,13.58,12.17,47.59359,-54.27349
2023-02-01 05:34:00+00:00,359.0,12.43,346.0,14.58,12.17,47.59359,-54.27349
2023-02-01 05:44:00+00:00,356.0,12.42,357.0,14.06,12.17,47.59359,-54.27349
2023-02-01 05:54:00+00:00,351.0,13.68,358.0,15.68,12.17,47.59359,-54.27349
2023-02-01 06:04:00+00:00,339.0,13.31,343.0,15.79,12.17,47.59359,-54.27349
2023-02-01 06:14:00+00:00,338.0,13.56,338.0,16.5,12.09,47.59359,-54.27349
2023-02-01 06:24:00+00:00,333.0,12.0,331.0,13.67,12.09,47.59359,-54.27349
2023-02-01 06:34:00+00:00,340.0,14.32,338.0,16.86,12.09,47.59359,-54.27349
2023-02-01 06:44:00+00:00,329.0,11.8,327.0,13.19,12.09,47.59359,-54.27349
2023-02-01 06:54:00+00:00,340.0,13.79,330.0,17.28,12.09,47.59359,-54.27349
2023-02-01 07:04:00+00:00,338.0,12.6,327.0,14.49,12.09,47.59359,-54.27349
2023-02-01 07:14:00+00:00,349.0,10.67,353.0,12.76,12.09,47.59359,-54.27349
2023-02-01 07:24:00+00:00,339.0,10.61,349.0,12.22,12.09,47.59359,-54.27349
2023-02-01 07:34:00+00:00,339.0,11.68,332.0,13.5,12.09,47.59359,-54.27349
2023-02-01 07:44:00+00:00,333.0,10.76,324.0,13.67,12.09,47.59359,-54.27349
2023-02-01 07:54:00+00:00,353.0,9.93,337.0,11.83,12.09,47.59359,-54.27349
2023-02-01 08:04:00+00:00,324.0,11.35,321.0,14.36,12.09,47.59359,-54.27349
2023-02-01 08:14:01+00:00,350.0,10.44,348.0,12.4,12.09,47.59359,-54.27349
2023-02-01 08:24:01+00:00,315.0,10.56,311.0,12.11,12.09,47.59359,-54.27349
2023-02-01 08:34:01+00:00,327.0,9.62,312.0,12.88,12.09,47.59359,-54.27349
2023-02-01 08:44:01+00:00,337.0,9.0,330.0,11.39,12.09,47.59359,-54.27349
2023-02-01 08:54:01+00:00,316.0,10.77,315.0,13.26,12.09,47.59359,-54.27349
2023-02-01 09:04:01+00:00,319.0,12.9,320.0,14.97,12.09,47.59359,-54.27349
2023-02-01 09:14:01+00:00,315.0,12.15,313.0,13.83,12.09,47.59359,-54.27349
2023-02-01 09:24:01+00:00,325.0,11.43,318.0,13.97,12.09,47.59359,-54.27349
2023-02-01 09:34:01+00:00,327.0,10.7,313.0,13.16,12.09,47.59359,-54.27349
2023-02-01 09:44:01+00:00,326.0,10.49,315.0,13.1,12.09,47.59359,-54.27349
2023-02-01 09:54:01+00:00,326.0,11.29,321.0,13.62,12.09,47.59359,-54.27349
2023-02-01 10:04:01+00:00,327.0,9.89,318.0,12.46,12.09,47.59359,-54.27349
2023-02-01 10:14:01+00:00,326.0,10.35,325.0,12.23,12.01,47.59359,-54.27349
2023-02-01 10:24:01+00:00,343.0,11.33,339.0,13.29,12.01,47.59359,-54.27349
2023-02-01 10:34:01+00:00,335.0,8.99,333.0,11.38,12.01,47.59359,-54.27349
2023-02-01 10:44:01+00:00,334.0,9.04,340.0,10.49,12.01,47.59359,-54.27349
2023-02-01 10:54:01+00:00,331.0,8.4,324.0,10.41,12.01,47.59359,-54.27349
2023-02-01 11:04:01+00:00,339.0,9.77,342.0,12.45,12.01,47.59359,-54.27349
2023-02-01 11:14:01+00:00,336.0,10.03,343.0,11.15,12.09,47.59359,-54.27349
2023-02-01 11:24:01+00:00,334.0,9.31,338.0,11.14,12.09,47.59359,-54.27349
2023-02-01 11:34:01+00:00,333.0,9.82,328.0,11.84,12.09,47.59359,-54.27349
2023-02-01 11:44:01+00:00,333.0,9.15,341.0,10.83,12.09,47.59359,-54.27349
2023-02-01 11:54:01+00:00,336.0,9.27,341.0,12.15,12.09,47.59359,-54.27349
2023-02-01 12:04:01+00:00,339.0,9.98,339.0,12.08,12.09,47.59359,-54.27349
2023-02-01 12:14:01+00:00,336.0,10.55,328.0,12.21,14.48,47.59359,-54.27349
2023-02-01 12:24:01+00:00,339.0,9.42,338.0,11.35,14.48,47.59359,-54.27349
2023-02-01 12:34:01+00:00,338.0,9.5,341.0,10.8,14.48,47.59359,-54.27349
2023-02-01 12:44:01+00:00,335.0,9.35,341.0,11.16,14.48,47.59359,-54.27349
2023-02-01 12:54:01+00:00,337.0,10.58,339.0,12.81,14.48,47.59359,-54.27349
2023-02-01 13:04:01+00:00,337.0,10.14,339.0,11.8,14.48,47.59359,-54.27349
2023-02-01 13:14:01+00:00,339.0,10.0,341.0,11.93,14.0,47.59359,-54.27349
2023-02-01 13:24:01+00:00,330.0,10.59,314.0,13.79,14.0,47.59359,-54.27349
2023-02-01 13:34:01+00:00,330.0,9.75,336.0,10.99,14.0,47.59359,-54.27349
2023-02-01 13:44:01+00:00,337.0,11.0,340.0,13.01,14.0,47.59359,-54.27349
2023-02-01 13:54:01+00:00,337.0,10.65,344.0,12.35,14.0,47.59359,-54.27349
2023-02-01 14:04:01+00:00,333.0,9.98,330.0,11.85,14.0,47.59359,-54.27349
2023-02-01 14:14:01+00:00,340.0,8.98,343.0,11.77,14.64,47.59359,-54.27349
2023-02-01 14:24:01+00:00,335.0,9.54,338.0,10.64,14.64,47.59359,-54.27349
2023-02-01 14:34:01+00:00,331.0,8.13,343.0,10.25,14.64,47.59359,-54.27349
2023-02-01 14:44:01+00:00,320.0,8.72,313.0,11.06,14.64,47.59359,-54.27349
2023-02-01 14:54:01+00:00,329.0,8.58,326.0,10.08,14.64,47.59359,-54.27349
2023-02-01 15:04:01+00:00,334.0,9.05,334.0,9.94,14.64,47.59359,-54.27349
2023-02-01 15:14:01+00:00,342.0,7.95,343.0,9.86,14.32,47.59359,-54.27349
2023-02-01 15:24:01+00:00,337.0,7.12,334.0,9.32,14.32,47.59359,-54.27349
2023-02-01 15:34:01+00:00,338.0,9.21,340.0,10.58,14.32,47.59359,-54.27349
2023-02-01 15:44:01+00:00,337.0,7.81,345.0,9.34,14.32,47.59359,-54.27349
2023-02-01 15:54:01+00:00,357.0,9.48,357.0,11.0,14.32,47.59359,-54.27349
2023-02-01 16:04:01+00:00,349.0,8.6,353.0,10.7,14.32,47.59359,-54.27349
2023-02-01 16:14:01+00:00,344.0,8.97,347.0,11.33,13.68,47.59359,-54.27349
2023-02-01 16:24:01+00:00,355.0,9.76,356.0,11.03,13.68,47.59359,-54.27349
2023-02-01 16:34:01+00:00,338.0,7.84,340.0,9.6,13.68,47.59359,-54.27349
2023-02-01 16:44:01+00:00,350.0,8.12,348.0,9.67,13.68,47.59359,-54.27349
2023-02-01 16:54:01+00:00,353.0,9.45,352.0,10.96,13.68,47.59359,-54.27349
2023-02-01 17:04:01+00:00,358.0,6.56,350.0,7.65,13.68,47.59359,-54.27349
2023-02-01 17:14:01+00:00,358.0,6.4,357.0,8.3,13.92,47.59359,-54.27349
2023-02-01 17:24:01+00:00,324.0,6.18,323.0,6.97,13.92,47.59359,-54.27349
2023-02-01 17:34:01+00:00,346.0,5.79,341.0,7.79,13.92,47.59359,-54.27349
2023-02-01 17:44:01+00:00,327.0,4.43,326.0,5.16,13.92,47.59359,-54.27349
2023-02-01 17:54:01+00:00,311.0,3.75,314.0,4.6,13.92,47.59359,-54.27349
2023-02-01 18:04:01+00:00,332.0,5.67,332.0,6.57,13.92,47.59359,-54.27349
2023-02-01 18:14:01+00:00,325.0,3.4,321.0,3.83,13.68,47.59359,-54.27349
2023-02-01 18:24:01+00:00,320.0,3.83,324.0,4.31,13.68,47.59359,-54.27349
2023-02-01 18:34:01+00:00,335.0,3.16,322.0,4.8,13.68,47.59359,-54.27349
2023-02-01 18:44:01+00:00,287.0,0.27,257.0,3.67,13.68,47.59359,-54.27349
2023-02-01 18:54:01+00:00,309.0,3.36,311.0,4.25,13.68,47.59359,-54.27349
2023-02-01 19:04:01+00:00,313.0,3.39,316.0,4.4,13.68,47.59359,-54.27349
2023-02-01 19:14:01+00:00,311.0,3.1,317.0,4.05,14.48,47.59359,-54.27349
2023-02-01 19:24:01+00:00,354.0,3.16,321.0,5.04,14.48,47.59359,-54.27349
2023-02-01 19:34:01+00:00,280.0,3.4,287.0,3.73,14.48,47.59359,-54.27349
2023-02-01 19:44:01+00:00,17.0,2.18,306.0,3.87,14.48,47.59359,-54.27349
2023-02-01 19:54:01+00:00,47.0,1.18,58.0,2.71,14.48,47.59359,-54.27349
2023-02-01 20:04:01+00:00,102.0,1.83,124.0,2.63,14.48,47.59359,-54.27349
2023-02-01 20:14:01+00:00,36.0,1.16,74.0,2.59,13.44,47.59359,-54.27349
2023-02-01 20:24:01+00:00,47.0,2.03,40.0,3.1,13.44,47.59359,-54.27349
2023-02-01 20:34:01+00:00,287.0,2.92,295.0,4.19,13.44,47.59359,-54.27349
2023-02-01 20:44:01+00:00,17.0,1.39,4.0,1.86,13.44,47.59359,-54.27349
2023-02-01 20:54:01+00:00,291.0,2.39,287.0,3.18,13.44,47.59359,-54.27349
2023-02-01 21:04:01+00:00,276.0,2.46,279.0,3.11,13.44,47.59359,-54.27349
2023-02-01 21:14:01+00:00,351.0,2.19,354.0,2.92,12.65,47.59359,-54.27349
2023-02-01 21:24:01+00:00,327.0,2.41,323.0,3.1,12.65,47.59359,-54.27349
2023-02-01 21:34:01+00:00,266.0,0.89,261.0,1.23,12.65,47.59359,-54.27349
2023-02-01 21:44:01+00:00,297.0,1.15,295.0,1.68,12.65,47.59359,-54.27349
2023-02-01 21:54:01+00:00,273.0,1.79,280.0,3.05,12.65,47.59359,-54.27349
2023-02-01 22:04:01+00:00,243.0,2.18,243.0,2.95,12.65,47.59359,-54.27349
2023-02-01 22:14:01+00:00,253.0,2.37,246.0,3.06,12.41,47.59359,-54.27349
2023-02-01 22:24:01+00:00,264.0,3.29,263.0,4.01,12.41,47.59359,-54.27349
2023-02-01 22:34:01+00:00,269.0,2.48,273.0,3.73,12.41,47.59359,-54.27349
2023-02-01 22:44:01+00:00,248.0,2.91,238.0,4.09,12.41,47.59359,-54.27349
2023-02-01 22:54:01+00:00,233.0,3.63,236.0,4.09,12.41,47.59359,-54.27349
2023-02-01 23:04:01+00:00,240.0,2.14,239.0,3.72,12.41,47.59359,-54.27349
2023-02-01 23:14:01+00:00,251.0,1.51,245.0,2.19,12.33,47.59359,-54.27349
2023-02-01 23:24:01+00:00,277.0,2.95,272.0,3.85,12.33,47.59359,-54.27349
2023-02-01 23:34:01+00:00,293.0,2.42,292.0,3.01,12.33,47.59359,-54.27349
2023-02-01 23:44:01+00:00,270.0,2.45,280.0,3.48,12.33,47.59359,-54.27349
2023-02-01 23:54:01+00:00,267.0,1.98,272.0,2.89,12.33,47.59359,-54.27349
